TimeHST,TemperatureF,Dew PointF,Humidity,Sea Level PressureIn,VisibilityMPH,Wind Direction,Wind SpeedMPH,Gust SpeedMPH,PrecipitationIn,Events,Conditions,WindDirDegrees,DateUTC
12:53 AM,70.0,70.0,100,29.97,10.0,Calm,Calm,-,N/A,,Mostly Cloudy,0,2014-02-04 10:53:00
1:21 AM,71.1,66.9,87,29.97,10.0,North,15.0,23.0,N/A,,Overcast,360,2014-02-04 11:21:00
1:53 AM,70.0,64.9,84,29.95,10.0,North,17.3,26.5,N/A,,Mostly Cloudy,360,2014-02-04 11:53:00
2:19 AM,70.0,64.9,84,29.96,10.0,North,15.0,-,N/A,,Mostly Cloudy,10,2014-02-04 12:19:00
2:53 AM,71.1,64.9,81,29.94,10.0,North,11.5,-,N/A,,Mostly Cloudy,10,2014-02-04 12:53:00
3:53 AM,69.1,64.9,87,29.94,10.0,North,13.8,-,N/A,,Overcast,350,2014-02-04 13:53:00
4:53 AM,70.0,64.9,84,29.94,10.0,NNW,12.7,-,N/A,,Mostly Cloudy,330,2014-02-04 14:53:00
5:53 AM,69.1,64.9,87,29.95,10.0,NW,6.9,-,N/A,,Scattered Clouds,310,2014-02-04 15:53:00
6:53 AM,68.0,66.0,93,29.96,10.0,South,3.5,-,N/A,,Overcast,190,2014-02-04 16:53:00
7:53 AM,69.1,66.0,90,29.98,10.0,SSW,4.6,-,N/A,,Overcast,210,2014-02-04 17:53:00
8:53 AM,71.1,66.0,84,30.00,10.0,West,3.5,-,N/A,,Overcast,270,2014-02-04 18:53:00
9:53 AM,73.0,66.9,81,30.01,10.0,West,5.8,-,N/A,,Mostly Cloudy,260,2014-02-04 19:53:00
10:53 AM,75.0,66.9,76,29.99,10.0,North,4.6,-,0.00,,Overcast,360,2014-02-04 20:53:00
11:53 AM,75.9,66.9,74,29.96,10.0,North,4.6,-,N/A,,Overcast,360,2014-02-04 21:53:00
12:53 PM,78.1,68.0,71,29.92,10.0,North,8.1,-,N/A,,Mostly Cloudy,360,2014-02-04 22:53:00
1:53 PM,77.0,68.0,74,29.88,10.0,NNE,8.1,-,N/A,,Mostly Cloudy,20,2014-02-04 23:53:00
2:53 PM,77.0,66.9,71,29.88,10.0,ENE,5.8,-,N/A,,Mostly Cloudy,60,2014-02-05 00:53:00
3:53 PM,75.9,69.1,79,29.88,10.0,SE,8.1,-,N/A,,Mostly Cloudy,130,2014-02-05 01:53:00
4:53 PM,75.0,69.1,82,29.89,10.0,SE,4.6,-,N/A,,Overcast,140,2014-02-05 02:53:00
5:53 PM,73.9,69.1,85,29.91,10.0,Calm,Calm,-,N/A,,Overcast,0,2014-02-05 03:53:00
6:53 PM,73.0,70.0,90,29.92,10.0,SSW,3.5,-,N/A,,Mostly Cloudy,200,2014-02-05 04:53:00
7:53 PM,73.0,69.1,87,29.94,10.0,SW,3.5,-,N/A,,Overcast,220,2014-02-05 05:53:00
8:53 PM,72.0,69.1,91,29.95,10.0,SW,4.6,-,N/A,,Overcast,220,2014-02-05 06:53:00
9:53 PM,71.1,68.0,90,29.95,10.0,SSW,5.8,-,N/A,,Mostly Cloudy,200,2014-02-05 07:53:00
10:53 PM,69.1,69.1,100,29.95,10.0,SW,5.8,-,0.04,,Partly Cloudy,230,2014-02-05 08:53:00
11:53 PM,69.1,68.0,96,29.94,10.0,SSW,5.8,-,N/A,,Overcast,210,2014-02-05 09:53:00